DECAYED

STARLINK-1174, 45075 (Decayed)

Orbit data source: Space-Track

STARLINK-1174, 45075 was a payload satellite owned by SpaceX/Seattle (US) in LEO that was launched on Wed, 29 Jan 2020 UTC via an FALCON 9 launch vehicle from the Air Force Eastern Test Range (AFETR). Payload-class satellites include a variety of spacecraft equipped with specific instruments for various scientific and technological missions. These include communications satellites like Starlink; space stations such as the ISS; scientific satellites like the Hubble; Earth observation satellites from companies like Planet Labs, Umbra, and HawkEye 360; GPS; miniature CubeSats for education and research; and military/defense satellites.

Not visible in the next 10 days
Identifier
45075, 2020-006AH
Orbit
Decayed
Last TLE update
1 month ago
Origin
Manufacturer
SpaceX/Seattle
Mission
Decayed Commercial Communications
Bus & Motor
STARLINK, Unknown motor
Mass
260 kg wet, ~248 kg dry
Launch date (UTC)
2020-01-29 (5 years ago)
Launch vehicle
FALCON 9
Launch site
Air Force Eastern Test Range (AFETR)
Object type
Payload
Rocket body
Debris
Shape & HBR
Box + 1 Pan, 8.86 m
Radar Cross Section
13.562 m², Large (>1 m²)

Expand to show TLE details & history

TLE from 1 month ago
0 STARLINK-1174
1 45075U 20006AH  25133.39466986  .14473348  12549-4  30164-3 0  9990
2 45075  53.0296 128.0823 0005868 272.5739 242.2750 16.46573732292474
Epoch: 2025-05-13T09:28Z
TLE epoch observation values (Epoch: 2025-05-13T09:28:19.475Z)
Latitude
19.93994°
Longitude
-81.14688°
Altitude
150.633 km
Speed
7.818 km/s
True Right ascension
19h 29m 18s
True Declination
19° 49' 11"
Sunlit
Object was in full shadow at epoch
Visualization orbit readout
Visualization observer readout
Orbital elements
Apogee altitude
152.495 km
Perigee altitude
144.835 km
Semi-major axis
6,526.802 km
Eccentricity
0.00059
Inclination
53.0296°
RAAN
128.0823°
Arg. of periapsis
272.5739°
True anomaly
Unknown
Mean anomaly
242.275°
Eccentric anomaly
Unknown
Mean motion
4.11616 °/min
Orbital period
87.46 mins
BSTAR
0.00030164
Loading maneuver chart data...
Loading SW <> Apogee altitude chart data...
Loading historical data...
Loading historical data...
Loading historical data...
Loading historical data...
Loading historical data...
Loading historical data...
Loading historical data...

STARLINK-1174 Visibility

Observer location: undefined°, undefined°

This satellite is decayed
Span
Click to sort rows by Start time (UTC) header in descending order
Start Az.
Max El. time (UTC)
Max El. Az.
Max El.
End time (UTC)
End Az.
|